LPE2371 SPJC-SCEL

Flight info

Callsign LPE2371
Flight time N/A
Altitude 35000
Route ITAV3F ILMAR UL302 SIMOK SIMO7B
Aircraft A320/M-SDE3FGHIRWY/LB1

Departure

Time 2026-04-29 16:52
Airport Jorge Chávez International Airport (SPJC)

Arrival

Time N/A
Airport Comodoro Arturo Merino Benítez International Airport (SCEL)
Time Latitude Longitude Altitude Speed Heading
2026-04-29 16:20 -12.02484 -77.11785 124 ft 0 kts 244°
2026-04-29 16:41 -12.02484 -77.11784 124 ft 0 kts 244°
2026-04-29 16:41 -12.02478 -77.11771 124 ft 2 kts 244°
2026-04-29 16:41 -12.02471 -77.11758 124 ft 2 kts 243°
2026-04-29 16:42 -12.02465 -77.11745 124 ft 2 kts 265°
2026-04-29 16:42 -12.02468 -77.11729 124 ft 2 kts 309°
2026-04-29 16:42 -12.02481 -77.11721 124 ft 2 kts 343°
2026-04-29 16:42 -12.02488 -77.11718 124 ft 0 kts 332°
2026-04-29 16:45 -12.02487 -77.11719 124 ft 1 kts 332°
2026-04-29 16:45 -12.02449 -77.11739 124 ft 8 kts 332°
2026-04-29 16:46 -12.02392 -77.11727 124 ft 10 kts 56°
2026-04-29 16:46 -12.02352 -77.11652 124 ft 13 kts 54°
2026-04-29 16:46 -12.02263 -77.11651 124 ft 15 kts 334°
2026-04-29 16:46 -12.02161 -77.11701 124 ft 17 kts 334°
2026-04-29 16:47 -12.02043 -77.11759 124 ft 19 kts 335°
2026-04-29 16:47 -12.01918 -77.11822 124 ft 21 kts 332°
2026-04-29 16:47 -12.01835 -77.11827 124 ft 12 kts 55°
2026-04-29 16:47 -12.01757 -77.11820 125 ft 14 kts 329°
2026-04-29 16:48 -12.01662 -77.11867 125 ft 16 kts 333°
2026-04-29 16:48 -12.01550 -77.11920 125 ft 18 kts 332°
2026-04-29 16:48 -12.01429 -77.11981 125 ft 20 kts 333°
2026-04-29 16:48 -12.01305 -77.12049 125 ft 19 kts 318°
2026-04-29 16:49 -12.01215 -77.12155 125 ft 19 kts 321°
2026-04-29 16:49 -12.01100 -77.12215 125 ft 18 kts 334°
2026-04-29 16:49 -12.00983 -77.12273 125 ft 18 kts 334°
2026-04-29 16:49 -12.00870 -77.12312 125 ft 10 kts 20°
2026-04-29 16:50 -12.00830 -77.12246 125 ft 11 kts 60°
2026-04-29 16:50 -12.00800 -77.12169 125 ft 11 kts 74°
2026-04-29 16:50 -12.00798 -77.12119 125 ft 5 kts 145°
2026-04-29 16:50 -12.00810 -77.12113 125 ft 0 kts 154°
2026-04-29 16:51 -12.00974 -77.12032 125 ft 64 kts 153°
2026-04-29 16:51 -12.01616 -77.11713 125 ft 135 kts 154°
2026-04-29 16:51 -12.02618 -77.11228 310 ft 172 kts 155°
2026-04-29 16:52 -12.03669 -77.10718 1044 ft 170 kts 155°
2026-04-29 16:52 -12.04758 -77.10182 1578 ft 175 kts 154°
2026-04-29 16:52 -12.05906 -77.09614 1911 ft 192 kts 154°
2026-04-29 16:52 -12.07165 -77.08990 2252 ft 209 kts 153°
2026-04-29 16:53 -12.08512 -77.08324 2689 ft 221 kts 154°
2026-04-29 16:53 -12.09988 -77.07597 3004 ft 243 kts 153°
2026-04-29 16:53 -12.11561 -77.06823 3405 ft 261 kts 153°
2026-04-29 16:53 -12.13283 -77.06068 3944 ft 273 kts 166°
2026-04-29 16:54 -12.15173 -77.06107 4626 ft 278 kts 199°
2026-04-29 16:54 -12.16817 -77.07124 5302 ft 280 kts 226°
2026-04-29 16:54 -12.18197 -77.08575 5964 ft 284 kts 227°
2026-04-29 16:54 -12.19574 -77.10028 6607 ft 287 kts 227°
2026-04-29 16:55 -12.20518 -77.11009 7026 ft 290 kts 227°
2026-04-29 16:55 -12.22441 -77.12981 7850 ft 293 kts 226°
2026-04-29 16:55 -12.23889 -77.14455 8439 ft 296 kts 226°
2026-04-29 16:55 -12.25355 -77.15939 9015 ft 298 kts 226°
2026-04-29 16:56 -12.26835 -77.17437 9579 ft 301 kts 226°
2026-04-29 16:56 -12.28397 -77.18874 10090 ft 305 kts 213°
2026-04-29 16:56 -12.30423 -77.19662 10374 ft 318 kts 186°
2026-04-29 16:56 -12.32668 -77.19492 10651 ft 328 kts 167°
2026-04-29 16:57 -12.34918 -77.18965 11097 ft 333 kts 167°
2026-04-29 16:57 -12.37182 -77.18451 11597 ft 336 kts 167°
2026-04-29 16:57 -12.39495 -77.17938 12106 ft 338 kts 167°
2026-04-29 16:57 -12.41779 -77.17437 12624 ft 339 kts 167°
2026-04-29 16:58 -12.44100 -77.16934 13137 ft 340 kts 167°
2026-04-29 16:58 -12.46426 -77.16434 13618 ft 341 kts 167°
2026-04-29 16:58 -12.48775 -77.15926 14091 ft 343 kts 167°
2026-04-29 16:58 -12.51121 -77.15421 14540 ft 345 kts 167°
2026-04-29 16:59 -12.53476 -77.14915 14978 ft 347 kts 167°
2026-04-29 16:59 -12.55853 -77.14403 15399 ft 349 kts 167°
2026-04-29 16:59 -12.58232 -77.13892 15812 ft 351 kts 166°
2026-04-29 16:59 -12.60637 -77.13374 16218 ft 353 kts 166°
2026-04-29 17:00 -12.63070 -77.12848 16627 ft 354 kts 166°
2026-04-29 17:00 -12.65479 -77.12329 17012 ft 356 kts 166°
2026-04-29 17:00 -12.67938 -77.11800 17392 ft 358 kts 166°
2026-04-29 17:00 -12.70375 -77.11275 17774 ft 360 kts 166°
2026-04-29 17:01 -12.72840 -77.10742 18145 ft 361 kts 166°
2026-04-29 17:01 -12.75321 -77.10206 18518 ft 363 kts 166°
2026-04-29 17:01 -12.77807 -77.09669 18895 ft 364 kts 166°
2026-04-29 17:01 -12.80305 -77.09132 19255 ft 366 kts 167°
2026-04-29 17:02 -12.82774 -77.08599 19614 ft 367 kts 167°
2026-04-29 17:02 -12.85314 -77.08052 19974 ft 369 kts 166°
2026-04-29 17:02 -12.87842 -77.07506 20324 ft 371 kts 167°
2026-04-29 17:02 -12.90380 -77.06958 20665 ft 373 kts 167°
2026-04-29 17:03 -12.92929 -77.06408 21013 ft 374 kts 167°
2026-04-29 17:03 -12.95491 -77.05855 21361 ft 376 kts 167°
2026-04-29 17:03 -12.98074 -77.05296 21703 ft 377 kts 167°
2026-04-29 17:03 -13.00649 -77.04739 22044 ft 379 kts 167°
2026-04-29 17:04 -13.03246 -77.04179 22361 ft 380 kts 167°
2026-04-29 17:04 -13.05844 -77.03617 22697 ft 382 kts 167°
2026-04-29 17:04 -13.08413 -77.02975 22989 ft 384 kts 163°
2026-04-29 17:04 -13.11025 -77.02194 23273 ft 387 kts 162°
2026-04-29 17:05 -13.13620 -77.01399 23550 ft 390 kts 162°
2026-04-29 17:05 -13.16220 -77.00599 23822 ft 393 kts 162°
2026-04-29 17:05 -13.18872 -76.99783 24093 ft 396 kts 162°
2026-04-29 17:05 -13.21540 -76.98961 24359 ft 399 kts 163°
2026-04-29 17:06 -13.24216 -76.98138 24630 ft 402 kts 163°
2026-04-29 17:06 -13.26905 -76.97311 24872 ft 406 kts 163°
2026-04-29 17:06 -13.29637 -76.96471 25154 ft 408 kts 163°
2026-04-29 17:06 -13.32390 -76.95624 25418 ft 411 kts 163°
2026-04-29 17:07 -13.35146 -76.94777 25686 ft 414 kts 163°
2026-04-29 17:07 -13.37911 -76.93926 25938 ft 416 kts 164°
2026-04-29 17:07 -13.40693 -76.93069 26184 ft 419 kts 164°
2026-04-29 17:07 -13.43529 -76.92195 26436 ft 422 kts 164°
2026-04-29 17:08 -13.46367 -76.91322 26712 ft 424 kts 164°
2026-04-29 17:08 -13.49203 -76.90448 26941 ft 427 kts 164°
2026-04-29 17:08 -13.52044 -76.89486 27181 ft 430 kts 161°
2026-04-29 17:08 -13.54842 -76.88346 27415 ft 433 kts 157°
2026-04-29 17:09 -13.57597 -76.87026 27653 ft 436 kts 155°
2026-04-29 17:09 -13.60333 -76.85639 27899 ft 439 kts 154°
2026-04-29 17:09 -13.63052 -76.84248 28132 ft 441 kts 154°
2026-04-29 17:09 -13.65846 -76.82818 28358 ft 444 kts 155°
2026-04-29 17:10 -13.68606 -76.81408 28566 ft 447 kts 155°
2026-04-29 17:10 -13.71416 -76.79975 28802 ft 449 kts 155°
2026-04-29 17:10 -13.74219 -76.78547 29060 ft 451 kts 155°
2026-04-29 17:10 -13.77051 -76.77104 29290 ft 453 kts 155°
2026-04-29 17:11 -13.79873 -76.75668 29486 ft 455 kts 155°
2026-04-29 17:11 -13.82758 -76.74198 29684 ft 458 kts 155°
2026-04-29 17:11 -13.85603 -76.72748 29892 ft 460 kts 155°
2026-04-29 17:11 -13.88499 -76.71272 30094 ft 462 kts 155°
2026-04-29 17:12 -13.91418 -76.69783 30291 ft 465 kts 155°
2026-04-29 17:12 -13.94297 -76.68314 30502 ft 466 kts 155°
2026-04-29 17:12 -13.97204 -76.66830 30697 ft 468 kts 155°
2026-04-29 17:12 -13.99176 -76.65823 30810 ft 470 kts 155°
2026-04-29 17:13 -14.03112 -76.63814 31043 ft 473 kts 155°
2026-04-29 17:13 -14.06073 -76.62301 31218 ft 475 kts 154°
2026-04-29 17:13 -14.09039 -76.60784 31397 ft 477 kts 154°
2026-04-29 17:13 -14.12054 -76.59242 31583 ft 478 kts 155°
2026-04-29 17:14 -14.15024 -76.57721 31739 ft 480 kts 154°
2026-04-29 17:14 -14.18012 -76.56190 31895 ft 482 kts 154°
2026-04-29 17:14 -14.21045 -76.54639 32066 ft 483 kts 154°
2026-04-29 17:14 -14.24080 -76.53121 32214 ft 485 kts 156°
2026-04-29 17:15 -14.27164 -76.51775 32340 ft 486 kts 160°
2026-04-29 17:15 -14.30369 -76.50605 32497 ft 487 kts 164°
2026-04-29 17:15 -14.33625 -76.49636 32642 ft 487 kts 167°
2026-04-29 17:15 -14.36950 -76.48731 32846 ft 488 kts 167°
2026-04-29 17:16 -14.40227 -76.47855 33114 ft 487 kts 167°
2026-04-29 17:16 -14.43518 -76.46975 33368 ft 487 kts 167°
2026-04-29 17:16 -14.46780 -76.46098 33564 ft 487 kts 167°
2026-04-29 17:16 -14.50096 -76.45201 33738 ft 488 kts 167°
2026-04-29 17:17 -14.53374 -76.44311 33930 ft 488 kts 167°
2026-04-29 17:17 -14.56657 -76.43420 34111 ft 489 kts 167°
2026-04-29 17:17 -14.59947 -76.42526 34288 ft 489 kts 167°
2026-04-29 17:17 -14.63287 -76.41616 34469 ft 489 kts 167°
2026-04-29 17:18 -14.66584 -76.40717 34636 ft 490 kts 167°
2026-04-29 17:18 -14.69854 -76.39825 34797 ft 490 kts 168°
2026-04-29 17:18 -14.73162 -76.38923 34899 ft 491 kts 167°
2026-04-29 17:18 -14.76465 -76.38022 34902 ft 491 kts 168°
2026-04-29 17:19 -14.83122 -76.36206 34906 ft 491 kts 168°
2026-04-29 17:19 -14.89724 -76.34403 34906 ft 492 kts 167°
2026-04-29 17:20 -14.96373 -76.32586 34910 ft 493 kts 167°
2026-04-29 17:20 -15.03045 -76.30762 34911 ft 492 kts 167°
2026-04-29 17:21 -15.09665 -76.28951 34912 ft 492 kts 167°
2026-04-29 17:21 -15.16316 -76.27129 34914 ft 493 kts 168°
2026-04-29 17:22 -15.22952 -76.25311 34913 ft 493 kts 167°
2026-04-29 17:22 -15.29559 -76.23500 34914 ft 492 kts 167°
2026-04-29 17:23 -15.36198 -76.21674 34918 ft 492 kts 167°
2026-04-29 17:23 -15.42836 -76.19850 34919 ft 493 kts 167°
2026-04-29 17:24 -15.49480 -76.18024 34918 ft 492 kts 167°
2026-04-29 17:24 -15.56114 -76.16200 34921 ft 493 kts 167°
2026-04-29 17:25 -15.62781 -76.14368 34922 ft 492 kts 167°
2026-04-29 17:25 -15.69412 -76.12540 34923 ft 492 kts 168°
2026-04-29 17:26 -15.76005 -76.10725 34923 ft 493 kts 167°
2026-04-29 17:26 -15.82661 -76.08891 34928 ft 492 kts 167°
2026-04-29 17:27 -15.89288 -76.07064 34928 ft 492 kts 168°
2026-04-29 17:27 -15.95925 -76.05231 34925 ft 492 kts 168°
2026-04-29 17:28 -16.02534 -76.03406 34926 ft 492 kts 168°
2026-04-29 17:28 -16.09189 -76.01568 34937 ft 492 kts 168°
2026-04-29 17:29 -16.15841 -75.99728 34938 ft 492 kts 168°
2026-04-29 17:29 -16.21373 -75.98196 34931 ft 492 kts 168°
2026-04-29 17:30 -16.29104 -75.96056 34937 ft 492 kts 168°
2026-04-29 17:30 -16.35706 -75.94226 34938 ft 493 kts 168°
2026-04-29 17:31 -16.42343 -75.92385 34944 ft 493 kts 168°
2026-04-29 17:31 -16.49005 -75.90536 34945 ft 492 kts 168°
2026-04-29 17:32 -16.55637 -75.88694 34945 ft 493 kts 168°
2026-04-29 17:32 -16.62258 -75.86855 34944 ft 493 kts 168°
2026-04-29 17:33 -16.68903 -75.85007 34949 ft 493 kts 168°
2026-04-29 17:33 -16.75531 -75.83163 34945 ft 493 kts 168°
2026-04-29 17:34 -16.82213 -75.81301 34944 ft 493 kts 168°
2026-04-29 17:34 -16.88820 -75.79458 34949 ft 493 kts 168°
2026-04-29 17:35 -16.98796 -75.76675 34952 ft 493 kts 168°
2026-04-29 17:36 -17.05459 -75.74816 34955 ft 493 kts 168°
2026-04-29 17:36 -17.12072 -75.72967 34950 ft 493 kts 168°
2026-04-29 17:37 -17.18735 -75.71102 34954 ft 493 kts 168°
2026-04-29 17:37 -17.25387 -75.69241 34960 ft 494 kts 168°
2026-04-29 17:38 -17.32014 -75.67385 34958 ft 493 kts 168°
2026-04-29 17:38 -17.38666 -75.65521 34959 ft 493 kts 168°
2026-04-29 17:39 -17.45298 -75.63660 34960 ft 492 kts 168°
2026-04-29 17:39 -17.51894 -75.61809 34960 ft 492 kts 168°
2026-04-29 17:40 -17.58556 -75.59937 34961 ft 492 kts 168°
2026-04-29 17:40 -17.65166 -75.58078 34961 ft 492 kts 168°
2026-04-29 17:41 -17.71825 -75.56202 34968 ft 491 kts 168°
2026-04-29 17:41 -17.78368 -75.54359 34968 ft 491 kts 168°
2026-04-29 17:42 -17.85042 -75.52480 34971 ft 491 kts 168°
2026-04-29 17:42 -17.91661 -75.50613 34977 ft 491 kts 169°
2026-04-29 17:43 -17.98241 -75.48756 34975 ft 491 kts 168°
2026-04-29 17:43 -18.04815 -75.46897 34977 ft 491 kts 168°
2026-04-29 17:44 -18.11450 -75.45020 34967 ft 491 kts 169°
2026-04-29 17:44 -18.18048 -75.43152 34982 ft 490 kts 169°
2026-04-29 17:45 -18.24658 -75.41280 34972 ft 490 kts 169°
2026-04-29 17:45 -18.31245 -75.39409 34973 ft 489 kts 169°
2026-04-29 17:46 -18.37867 -75.37508 34976 ft 490 kts 168°
2026-04-29 17:46 -18.44423 -75.35545 34976 ft 490 kts 168°
2026-04-29 17:47 -18.50998 -75.33562 34978 ft 490 kts 168°
2026-04-29 17:47 -18.57572 -75.31581 34976 ft 489 kts 168°
2026-04-29 17:48 -18.64125 -75.29609 34976 ft 489 kts 168°
2026-04-29 17:48 -18.70647 -75.27644 34975 ft 488 kts 168°
2026-04-29 17:49 -18.77220 -75.25665 34980 ft 489 kts 168°
2026-04-29 17:49 -18.83732 -75.23700 34974 ft 487 kts 168°
2026-04-29 17:50 -18.90266 -75.21728 34980 ft 488 kts 168°
2026-04-29 17:50 -18.96815 -75.19749 34980 ft 488 kts 168°
2026-04-29 17:51 -19.03322 -75.17782 34976 ft 487 kts 168°
2026-04-29 17:51 -19.09856 -75.15805 34973 ft 487 kts 168°
2026-04-29 17:52 -19.16383 -75.13827 34977 ft 486 kts 168°
2026-04-29 17:52 -19.22928 -75.11844 34974 ft 485 kts 168°
2026-04-29 17:53 -19.29430 -75.09872 34974 ft 486 kts 168°
2026-04-29 17:53 -19.35919 -75.07903 34975 ft 486 kts 168°
2026-04-29 17:54 -19.42432 -75.05924 34976 ft 486 kts 168°
2026-04-29 17:54 -19.48939 -75.03944 34974 ft 486 kts 168°
2026-04-29 17:55 -19.55424 -75.01968 34973 ft 485 kts 168°
2026-04-29 17:55 -19.61895 -75.00000 34971 ft 485 kts 168°
2026-04-29 17:56 -19.68419 -74.98010 34975 ft 485 kts 168°
2026-04-29 17:56 -19.74917 -74.96027 34976 ft 485 kts 168°
2026-04-29 17:57 -19.81402 -74.94048 34976 ft 484 kts 168°
2026-04-29 17:57 -19.87890 -74.92064 34972 ft 484 kts 168°
2026-04-29 17:58 -19.94397 -74.90073 34976 ft 483 kts 168°
2026-04-29 17:58 -20.00842 -74.88100 34976 ft 484 kts 168°
2026-04-29 17:59 -20.07318 -74.86115 34974 ft 483 kts 168°
2026-04-29 17:59 -20.13805 -74.84126 34975 ft 483 kts 168°
2026-04-29 18:00 -20.20263 -74.82145 34973 ft 483 kts 168°
2026-04-29 18:00 -20.26689 -74.80170 34974 ft 482 kts 168°
2026-04-29 18:01 -20.33182 -74.78174 34974 ft 482 kts 168°
2026-04-29 18:01 -20.39638 -74.76186 34976 ft 482 kts 168°
2026-04-29 18:02 -20.46078 -74.74202 34971 ft 481 kts 168°
2026-04-29 18:02 -20.52508 -74.72221 34972 ft 481 kts 168°
2026-04-29 18:03 -20.58953 -74.70231 34976 ft 481 kts 168°
2026-04-29 18:03 -20.65377 -74.68248 34974 ft 480 kts 168°
2026-04-29 18:04 -20.71789 -74.66263 34972 ft 480 kts 168°
2026-04-29 18:04 -20.78199 -74.64280 34977 ft 480 kts 168°
2026-04-29 18:05 -20.84623 -74.62291 34974 ft 480 kts 168°
2026-04-29 18:05 -20.91057 -74.60295 34972 ft 479 kts 168°
2026-04-29 18:06 -20.97423 -74.58320 34977 ft 478 kts 168°
2026-04-29 18:06 -21.03822 -74.56330 34968 ft 478 kts 168°
2026-04-29 18:07 -21.10234 -74.54335 34974 ft 478 kts 168°
2026-04-29 18:07 -21.16627 -74.52344 34973 ft 478 kts 168°
2026-04-29 18:08 -21.23053 -74.50349 34977 ft 478 kts 168°
2026-04-29 18:08 -21.29435 -74.48365 34975 ft 477 kts 168°
2026-04-29 18:09 -21.35825 -74.46375 34975 ft 477 kts 168°
2026-04-29 18:09 -21.42206 -74.44383 34977 ft 477 kts 168°
2026-04-29 18:10 -21.48581 -74.42391 34974 ft 477 kts 168°
2026-04-29 18:10 -21.54945 -74.40402 34975 ft 477 kts 168°
2026-04-29 18:11 -21.61343 -74.38397 34972 ft 477 kts 168°
2026-04-29 18:11 -21.67699 -74.36406 34973 ft 476 kts 168°
2026-04-29 18:12 -21.74103 -74.34398 34974 ft 477 kts 167°
2026-04-29 18:12 -21.80468 -74.32400 34974 ft 476 kts 167°
2026-04-29 18:13 -21.86864 -74.30389 34977 ft 477 kts 167°
2026-04-29 18:13 -21.93205 -74.28395 34972 ft 476 kts 167°
2026-04-29 18:14 -21.99598 -74.26384 34974 ft 476 kts 167°
2026-04-29 18:14 -22.05940 -74.24384 34972 ft 475 kts 167°
2026-04-29 18:15 -22.12310 -74.22375 34972 ft 476 kts 167°
2026-04-29 18:15 -22.18683 -74.20364 34971 ft 476 kts 167°
2026-04-29 18:16 -22.25025 -74.18359 34973 ft 476 kts 167°
2026-04-29 18:16 -22.31422 -74.16335 34972 ft 475 kts 167°
2026-04-29 18:17 -22.37769 -74.14325 34972 ft 474 kts 167°
2026-04-29 18:17 -22.44083 -74.12325 34972 ft 474 kts 167°
2026-04-29 18:18 -22.50438 -74.10310 34972 ft 474 kts 167°
2026-04-29 18:18 -22.56751 -74.08305 34972 ft 474 kts 167°
2026-04-29 18:19 -22.63090 -74.06290 34970 ft 473 kts 167°
2026-04-29 18:19 -22.69432 -74.04273 34971 ft 473 kts 167°
2026-04-29 18:20 -22.75715 -74.02271 34970 ft 473 kts 167°
2026-04-29 18:20 -22.82061 -74.00249 34970 ft 473 kts 167°
2026-04-29 18:21 -22.88354 -73.98241 34971 ft 472 kts 167°
2026-04-29 18:21 -22.94674 -73.96224 34971 ft 472 kts 167°
2026-04-29 18:22 -23.00962 -73.94213 34972 ft 471 kts 167°
2026-04-29 18:22 -23.07272 -73.92196 34971 ft 471 kts 167°
2026-04-29 18:23 -23.13574 -73.90176 34971 ft 471 kts 167°
2026-04-29 18:23 -23.19864 -73.88161 34971 ft 471 kts 167°
2026-04-29 18:24 -23.26150 -73.86144 34971 ft 471 kts 167°
2026-04-29 18:24 -23.32466 -73.84113 34971 ft 471 kts 167°
2026-04-29 18:25 -23.38762 -73.82089 34972 ft 471 kts 167°
2026-04-29 18:25 -23.45043 -73.80067 34971 ft 470 kts 167°
2026-04-29 18:26 -23.51307 -73.78047 34971 ft 470 kts 167°
2026-04-29 18:26 -23.57595 -73.76019 34971 ft 470 kts 167°
2026-04-29 18:27 -23.63875 -73.73992 34972 ft 470 kts 167°
2026-04-29 18:27 -23.70155 -73.71962 34971 ft 469 kts 167°
2026-04-29 18:28 -23.76440 -73.69928 34971 ft 469 kts 167°
2026-04-29 18:28 -23.82693 -73.67902 34971 ft 469 kts 167°
2026-04-29 18:29 -23.88946 -73.65873 34972 ft 468 kts 166°
2026-04-29 18:29 -23.95203 -73.63840 34971 ft 468 kts 166°
2026-04-29 18:30 -24.01486 -73.61797 34971 ft 468 kts 166°
2026-04-29 18:30 -24.07742 -73.59776 34975 ft 468 kts 166°
2026-04-29 18:31 -24.13977 -73.57758 34975 ft 469 kts 166°
2026-04-29 18:31 -24.20266 -73.55718 34976 ft 469 kts 166°
2026-04-29 18:32 -24.26517 -73.53684 34975 ft 469 kts 166°
2026-04-29 18:32 -24.35930 -73.50617 34976 ft 469 kts 165°
2026-04-29 18:33 -24.42224 -73.48565 34975 ft 470 kts 165°
2026-04-29 18:33 -24.48492 -73.46519 34976 ft 469 kts 165°
2026-04-29 18:34 -24.53700 -73.44816 34972 ft 469 kts 165°
2026-04-29 18:34 -24.61005 -73.42426 34976 ft 469 kts 165°
2026-04-29 18:35 -24.67263 -73.40376 34975 ft 468 kts 164°
2026-04-29 18:35 -24.73486 -73.38334 34971 ft 468 kts 164°
2026-04-29 18:36 -24.79725 -73.36288 34974 ft 466 kts 164°
2026-04-29 18:36 -24.85955 -73.34240 34976 ft 465 kts 163°
2026-04-29 18:37 -24.92168 -73.32196 34970 ft 464 kts 163°
2026-04-29 18:37 -24.98366 -73.30154 34976 ft 464 kts 163°
2026-04-29 18:38 -25.04574 -73.28109 34974 ft 463 kts 163°
2026-04-29 18:38 -25.10754 -73.26070 34972 ft 463 kts 163°
2026-04-29 18:39 -25.16930 -73.24030 34976 ft 464 kts 163°
2026-04-29 18:39 -25.23123 -73.21984 34978 ft 464 kts 163°
2026-04-29 18:40 -25.29307 -73.19936 34973 ft 464 kts 163°
2026-04-29 18:40 -25.35514 -73.17879 34975 ft 464 kts 163°
2026-04-29 18:41 -25.47870 -73.13778 34974 ft 463 kts 162°
2026-04-29 18:42 -25.54048 -73.11725 34973 ft 462 kts 162°
2026-04-29 18:42 -25.60198 -73.09679 34975 ft 463 kts 162°
2026-04-29 18:43 -25.66368 -73.07623 34976 ft 462 kts 162°
2026-04-29 18:43 -25.72557 -73.05558 34975 ft 461 kts 162°
2026-04-29 18:44 -25.78702 -73.03507 34982 ft 461 kts 162°
2026-04-29 18:44 -25.84830 -73.01459 34973 ft 460 kts 162°
2026-04-29 18:45 -25.90984 -72.99399 34975 ft 459 kts 162°
2026-04-29 18:45 -25.97104 -72.97349 34968 ft 459 kts 162°
2026-04-29 18:46 -26.03242 -72.95291 34974 ft 459 kts 162°
2026-04-29 18:46 -26.09355 -72.93238 34971 ft 459 kts 162°
2026-04-29 18:47 -26.15483 -72.91178 34971 ft 460 kts 162°
2026-04-29 18:47 -26.21607 -72.89117 34970 ft 460 kts 162°
2026-04-29 18:48 -26.27741 -72.87051 34971 ft 460 kts 162°
2026-04-29 18:48 -26.33882 -72.84980 34967 ft 461 kts 162°
2026-04-29 18:49 -26.40012 -72.82912 34968 ft 461 kts 162°
2026-04-29 18:49 -26.46168 -72.80832 34967 ft 461 kts 162°
2026-04-29 18:50 -26.52327 -72.78748 34967 ft 461 kts 162°
2026-04-29 18:50 -26.58477 -72.76665 34967 ft 462 kts 162°
2026-04-29 18:51 -26.64635 -72.74577 34965 ft 461 kts 162°
2026-04-29 18:51 -26.70775 -72.72494 34968 ft 462 kts 162°
2026-04-29 18:52 -26.76940 -72.70398 34966 ft 462 kts 163°
2026-04-29 18:52 -26.83089 -72.68306 34966 ft 461 kts 163°
2026-04-29 18:53 -26.89216 -72.66219 34965 ft 461 kts 163°
2026-04-29 18:53 -26.95381 -72.64117 34964 ft 461 kts 163°
2026-04-29 18:54 -27.01528 -72.62019 34963 ft 461 kts 163°
2026-04-29 18:54 -27.07635 -72.59931 34963 ft 461 kts 163°
2026-04-29 18:55 -27.13793 -72.57824 34962 ft 461 kts 163°
2026-04-29 18:55 -27.19951 -72.55714 34959 ft 460 kts 163°
2026-04-29 18:56 -27.26057 -72.53619 34963 ft 460 kts 163°
2026-04-29 18:56 -27.32186 -72.51514 34958 ft 460 kts 163°
2026-04-29 18:57 -27.38319 -72.49405 34959 ft 460 kts 163°
2026-04-29 18:57 -27.44424 -72.47301 34957 ft 460 kts 163°
2026-04-29 18:58 -27.50561 -72.45184 34956 ft 460 kts 163°
2026-04-29 18:58 -27.56669 -72.43083 34955 ft 459 kts 163°
2026-04-29 18:59 -27.62803 -72.40980 34953 ft 459 kts 163°
2026-04-29 18:59 -27.68933 -72.38871 34951 ft 459 kts 163°
2026-04-29 19:00 -27.75043 -72.36765 34947 ft 459 kts 163°
2026-04-29 19:00 -27.81121 -72.34667 34947 ft 458 kts 163°
2026-04-29 19:01 -27.87248 -72.32550 34944 ft 458 kts 163°
2026-04-29 19:01 -27.93356 -72.30436 34945 ft 458 kts 163°
2026-04-29 19:02 -27.98448 -72.28673 34941 ft 458 kts 163°
2026-04-29 19:02 -28.05550 -72.26208 34944 ft 458 kts 163°
2026-04-29 19:03 -28.11649 -72.24090 34943 ft 458 kts 163°
2026-04-29 19:03 -28.17729 -72.21976 34944 ft 458 kts 163°
2026-04-29 19:04 -28.23812 -72.19857 34942 ft 458 kts 163°
2026-04-29 19:04 -28.29924 -72.17725 34943 ft 458 kts 163°
2026-04-29 19:05 -28.36006 -72.15603 34944 ft 457 kts 164°
2026-04-29 19:05 -28.42068 -72.13483 34943 ft 457 kts 164°
2026-04-29 19:06 -28.48182 -72.11343 34941 ft 457 kts 164°
2026-04-29 19:07 -28.57303 -72.08142 34947 ft 456 kts 164°
2026-04-29 19:07 -28.63356 -72.06010 34947 ft 456 kts 164°
2026-04-29 19:08 -28.69420 -72.03871 34946 ft 455 kts 164°
2026-04-29 19:08 -28.75437 -72.01746 34946 ft 455 kts 164°
2026-04-29 19:09 -28.81493 -71.99603 34943 ft 455 kts 164°
2026-04-29 19:09 -28.87551 -71.97457 34945 ft 454 kts 164°
2026-04-29 19:10 -28.93585 -71.95317 34950 ft 454 kts 165°
2026-04-29 19:10 -28.99618 -71.93173 34950 ft 453 kts 165°
2026-04-29 19:11 -29.05621 -71.91039 34947 ft 453 kts 165°
2026-04-29 19:11 -29.11644 -71.88894 34942 ft 452 kts 165°
2026-04-29 19:12 -29.17642 -71.86755 34936 ft 452 kts 165°
2026-04-29 19:12 -29.23690 -71.84598 34938 ft 452 kts 165°
2026-04-29 19:13 -29.29688 -71.82454 34935 ft 452 kts 165°
2026-04-29 19:13 -29.35684 -71.80306 34934 ft 452 kts 165°
2026-04-29 19:14 -29.41673 -71.78159 34927 ft 452 kts 165°
2026-04-29 19:14 -29.47686 -71.76000 34921 ft 451 kts 165°
2026-04-29 19:15 -29.53659 -71.73881 34922 ft 451 kts 166°
2026-04-29 19:15 -29.59661 -71.71751 34923 ft 451 kts 166°
2026-04-29 19:16 -29.65667 -71.69614 34919 ft 450 kts 166°
2026-04-29 19:16 -29.71676 -71.67471 34922 ft 450 kts 166°
2026-04-29 19:17 -29.77635 -71.65343 34917 ft 450 kts 166°
2026-04-29 19:17 -29.83612 -71.63206 34918 ft 449 kts 166°
2026-04-29 19:18 -29.89619 -71.61054 34916 ft 449 kts 166°
2026-04-29 19:18 -29.95590 -71.58913 34915 ft 449 kts 166°
2026-04-29 19:19 -30.01543 -71.56777 34919 ft 449 kts 166°
2026-04-29 19:19 -30.07508 -71.54632 34916 ft 448 kts 166°
2026-04-29 19:20 -30.13463 -71.52486 34916 ft 448 kts 166°
2026-04-29 19:20 -30.19450 -71.50327 34915 ft 447 kts 167°
2026-04-29 19:21 -30.25389 -71.48092 34913 ft 449 kts 163°
2026-04-29 19:21 -30.31125 -71.45221 34926 ft 451 kts 157°
2026-04-29 19:22 -30.32052 -71.44673 34926 ft 451 kts 157°
2026-04-29 19:22 -30.42220 -71.38386 34950 ft 451 kts 156°
2026-04-29 19:23 -30.47778 -71.34935 34957 ft 450 kts 156°
2026-04-29 19:23 -30.53334 -71.31486 34962 ft 451 kts 156°
2026-04-29 19:24 -30.58780 -71.28103 34970 ft 450 kts 156°
2026-04-29 19:24 -30.64287 -71.24674 34974 ft 449 kts 156°
2026-04-29 19:25 -30.69795 -71.21243 34980 ft 449 kts 156°
2026-04-29 19:25 -30.75286 -71.17815 34981 ft 448 kts 156°
2026-04-29 19:26 -30.80782 -71.14384 34986 ft 447 kts 156°
2026-04-29 19:26 -30.86256 -71.10967 35013 ft 446 kts 156°
2026-04-29 19:27 -30.91728 -71.07546 35038 ft 445 kts 157°
2026-04-29 19:27 -30.97189 -71.04127 35057 ft 445 kts 157°
2026-04-29 19:28 -31.02669 -71.00685 35087 ft 444 kts 157°
2026-04-29 19:28 -31.08097 -70.97275 35100 ft 443 kts 157°
2026-04-29 19:29 -31.13535 -70.93851 35128 ft 443 kts 157°
2026-04-29 19:29 -31.19009 -70.90398 35176 ft 444 kts 157°
2026-04-29 19:30 -31.24446 -70.86967 35268 ft 444 kts 157°
2026-04-29 19:30 -31.30011 -70.84052 35298 ft 437 kts 167°
2026-04-29 19:31 -31.35920 -70.82397 35315 ft 428 kts 178°
2026-04-29 19:31 -31.41803 -70.82043 35317 ft 420 kts 187°
2026-04-29 19:32 -31.47638 -70.82555 35312 ft 418 kts 190°
2026-04-29 19:32 -31.53442 -70.83143 35296 ft 419 kts 190°
2026-04-29 19:33 -31.59251 -70.83723 35286 ft 418 kts 190°
2026-04-29 19:33 -31.65075 -70.84304 35252 ft 418 kts 190°
2026-04-29 19:34 -31.70850 -70.84879 35228 ft 418 kts 190°
2026-04-29 19:34 -31.76719 -70.85233 35209 ft 420 kts 185°
2026-04-29 19:35 -31.82591 -70.85060 35234 ft 421 kts 184°
2026-04-29 19:35 -31.88441 -70.84845 35253 ft 420 kts 184°
2026-04-29 19:36 -31.94280 -70.84636 35235 ft 421 kts 184°
2026-04-29 19:36 -32.00155 -70.84425 35260 ft 419 kts 184°
2026-04-29 19:37 -32.05994 -70.84216 35262 ft 420 kts 184°
2026-04-29 19:37 -32.11867 -70.84005 35232 ft 419 kts 184°
2026-04-29 19:38 -32.17678 -70.83798 35225 ft 419 kts 185°
2026-04-29 19:38 -32.23524 -70.83588 35210 ft 418 kts 184°
2026-04-29 19:39 -32.29346 -70.83379 35178 ft 418 kts 185°
2026-04-29 19:39 -32.35170 -70.83170 35167 ft 418 kts 185°
2026-04-29 19:40 -32.40998 -70.82961 35158 ft 418 kts 185°
2026-04-29 19:40 -32.46835 -70.82751 35144 ft 417 kts 185°
2026-04-29 19:41 -32.52656 -70.82540 35123 ft 417 kts 185°
2026-04-29 19:41 -32.58469 -70.82329 35109 ft 417 kts 185°
2026-04-29 19:42 -32.64283 -70.82119 35104 ft 417 kts 185°
2026-04-29 19:42 -32.70101 -70.81909 35104 ft 417 kts 185°
2026-04-29 19:42 -32.72986 -70.81802 35108 ft 406 kts 185°
2026-04-29 19:43 -32.75762 -70.81693 35114 ft 390 kts 185°
2026-04-29 19:43 -32.78416 -70.81589 35110 ft 375 kts 186°
2026-04-29 19:43 -32.81002 -70.81495 35102 ft 363 kts 186°
2026-04-29 19:44 -32.86048 -70.81323 35111 ft 361 kts 186°
2026-04-29 19:44 -32.91072 -70.81158 35120 ft 359 kts 188°
2026-04-29 19:45 -32.95948 -70.81702 35115 ft 353 kts 194°
2026-04-29 19:45 -33.00911 -70.82330 35108 ft 358 kts 188°
2026-04-29 19:46 -33.05901 -70.82121 35092 ft 361 kts 186°
2026-04-29 19:46 -33.10957 -70.81816 35112 ft 361 kts 186°
2026-04-29 19:47 -33.15974 -70.81527 35096 ft 360 kts 185°
2026-04-29 19:47 -33.20986 -70.81239 35059 ft 360 kts 186°
2026-04-29 19:48 -33.25989 -70.80970 35032 ft 360 kts 186°
2026-04-29 19:48 -33.30986 -70.80704 35022 ft 360 kts 186°
2026-04-29 19:49 -33.36001 -70.80441 35019 ft 360 kts 186°
2026-04-29 19:49 -33.41018 -70.80035 35027 ft 361 kts 185°
2026-04-29 19:50 -33.46041 -70.79576 35030 ft 361 kts 184°
2026-04-29 19:50 -33.51078 -70.79114 35022 ft 361 kts 184°
2026-04-29 19:51 -33.56100 -70.78657 35025 ft 360 kts 185°
2026-04-29 19:51 -33.61086 -70.78199 35033 ft 360 kts 185°
2026-04-29 19:52 -33.66054 -70.77741 35035 ft 359 kts 185°
2026-04-29 19:52 -33.71095 -70.77274 35063 ft 359 kts 185°
2026-04-29 19:53 -33.76073 -70.76810 35074 ft 359 kts 185°
2026-04-29 19:53 -33.81069 -70.76343 35049 ft 360 kts 185°
2026-04-29 19:54 -33.88545 -70.75639 35070 ft 359 kts 185°
2026-04-29 19:54 -33.93533 -70.75155 35072 ft 359 kts 185°
2026-04-29 19:55 -33.98518 -70.74662 35073 ft 359 kts 185°
2026-04-29 19:55 -34.03518 -70.74180 35079 ft 359 kts 185°
2026-04-29 19:56 -34.08491 -70.73696 35071 ft 359 kts 185°
2026-04-29 19:56 -34.13483 -70.73199 35045 ft 358 kts 185°
2026-04-29 19:57 -34.17632 -70.72786 35047 ft 358 kts 185°
2026-04-29 19:57 -34.23415 -70.72201 35043 ft 357 kts 185°
2026-04-29 19:58 -34.28397 -70.71679 35048 ft 357 kts 185°
2026-04-29 19:58 -34.33318 -70.71173 35063 ft 356 kts 185°
2026-04-29 19:59 -34.38276 -70.70671 35075 ft 356 kts 185°
2026-04-29 19:59 -34.43241 -70.70157 35128 ft 355 kts 185°
2026-04-29 20:00 -34.48157 -70.69639 35138 ft 355 kts 185°
2026-04-29 20:00 -34.53122 -70.69109 35168 ft 356 kts 185°
2026-04-29 20:01 -34.58028 -70.68573 35182 ft 355 kts 185°
2026-04-29 20:01 -34.62975 -70.68040 35189 ft 354 kts 185°
2026-04-29 20:02 -34.67897 -70.67497 35202 ft 355 kts 185°
2026-04-29 20:02 -34.71994 -70.67041 35216 ft 354 kts 185°
2026-04-29 20:03 -34.77734 -70.66396 35204 ft 353 kts 185°
2026-04-29 20:03 -34.82619 -70.65845 35210 ft 352 kts 185°
2026-04-29 20:04 -34.87523 -70.65293 35194 ft 353 kts 185°
2026-04-29 20:04 -34.92404 -70.64727 35221 ft 353 kts 185°
2026-04-29 20:05 -34.97284 -70.64169 35211 ft 352 kts 186°
2026-04-29 20:05 -35.02204 -70.63598 35218 ft 352 kts 185°
2026-04-29 20:06 -35.07107 -70.63037 35216 ft 351 kts 186°
2026-04-29 20:06 -35.11976 -70.62472 35227 ft 351 kts 185°
2026-04-29 20:07 -35.16840 -70.61916 35252 ft 351 kts 186°
2026-04-29 20:07 -35.21688 -70.61354 35262 ft 350 kts 185°
2026-04-29 20:08 -35.25600 -70.60889 35261 ft 351 kts 186°
2026-04-29 20:08 -35.31345 -70.60209 35247 ft 349 kts 186°
2026-04-29 20:09 -35.36200 -70.59625 35245 ft 351 kts 186°
2026-04-29 20:09 -35.41073 -70.59032 35245 ft 351 kts 186°
2026-04-29 20:10 -35.45926 -70.58446 35256 ft 350 kts 186°
2026-04-29 20:10 -35.50781 -70.57848 35250 ft 349 kts 186°
2026-04-29 20:11 -35.55591 -70.57253 35243 ft 349 kts 186°
2026-04-29 20:11 -35.60461 -70.56649 35255 ft 350 kts 186°
2026-04-29 20:12 -35.65286 -70.56059 35239 ft 348 kts 186°
2026-04-29 20:12 -35.70116 -70.55457 35236 ft 348 kts 186°
2026-04-29 20:13 -35.74115 -70.54963 35238 ft 347 kts 186°
2026-04-29 20:13 -35.79750 -70.54253 35226 ft 348 kts 186°
2026-04-29 20:14 -35.84582 -70.53645 35237 ft 347 kts 186°
2026-04-29 20:14 -35.89377 -70.53051 35230 ft 346 kts 186°
2026-04-29 20:15 -35.94195 -70.52439 35225 ft 347 kts 186°
2026-04-29 20:15 -35.99027 -70.51818 35221 ft 347 kts 186°
2026-04-29 20:16 -36.03831 -70.51206 35223 ft 346 kts 186°
2026-04-29 20:16 -36.08617 -70.50602 35228 ft 345 kts 186°
2026-04-29 20:17 -36.13417 -70.49985 35215 ft 345 kts 186°
2026-04-29 20:17 -36.17992 -70.49390 35222 ft 344 kts 186°
2026-04-29 20:18 -36.22850 -70.48753 35217 ft 344 kts 186°
2026-04-29 20:18 -36.27558 -70.48128 35213 ft 346 kts 186°
2026-04-29 20:19 -36.32343 -70.47495 35209 ft 345 kts 186°
2026-04-29 20:19 -36.37125 -70.46839 35203 ft 345 kts 186°
2026-04-29 20:20 -36.41898 -70.46191 35189 ft 344 kts 186°
2026-04-29 20:20 -36.46687 -70.45545 35187 ft 345 kts 186°
2026-04-29 20:21 -36.51463 -70.44898 35185 ft 345 kts 186°
2026-04-29 20:21 -36.56239 -70.44248 35177 ft 344 kts 186°
2026-04-29 20:22 -36.60963 -70.43602 35186 ft 343 kts 186°
2026-04-29 20:22 -36.65719 -70.42946 35182 ft 343 kts 186°
2026-04-29 20:23 -36.70511 -70.42276 35194 ft 343 kts 186°
2026-04-29 20:23 -36.75263 -70.41612 35193 ft 341 kts 186°
2026-04-29 20:24 -36.79973 -70.40948 35188 ft 342 kts 186°
2026-04-29 20:24 -36.84698 -70.40274 35184 ft 343 kts 186°
2026-04-29 20:25 -36.89464 -70.39597 35183 ft 343 kts 186°
2026-04-29 20:25 -36.94192 -70.38924 35176 ft 342 kts 187°
2026-04-29 20:26 -36.98951 -70.38247 35170 ft 343 kts 186°
2026-04-29 20:26 -37.03674 -70.37566 35167 ft 343 kts 186°
2026-04-29 20:27 -37.07640 -70.36984 35148 ft 341 kts 186°
2026-04-29 20:27 -37.13155 -70.36178 35147 ft 341 kts 187°
2026-04-29 20:28 -37.17827 -70.35472 35157 ft 342 kts 186°
2026-04-29 20:28 -37.22607 -70.34752 35146 ft 342 kts 186°
2026-04-29 20:29 -37.27297 -70.34023 35126 ft 341 kts 186°
2026-04-29 20:29 -37.32044 -70.33282 35135 ft 342 kts 186°
2026-04-29 20:30 -37.36624 -70.32570 35129 ft 342 kts 186°
2026-04-29 20:30 -37.41296 -70.31835 35117 ft 340 kts 186°